| time (UTC) | temp F | wind direction | speed MPH | gust MPH | rain 1hr in | rain 24hr in | rain mn in | humidity % | barometer mb |
| 20260902042040 | 80 | 77 | 0.0 | 0.0 | 0.00 | 0.00 | 0.00 | 78 | 1013.9 |
| 20260902041545 | 80 | 77 | 0.0 | 0.0 | 0.00 | 0.00 | 0.00 | 78 | 1013.9 |
| 20260902041040 | 80 | 77 | 0.0 | 0.0 | 0.00 | 0.00 | 0.00 | 78 | 1014.1 |
| 20260902040540 | 80 | 77 | 0.0 | 1.0 | 0.00 | 0.00 | 0.00 | 78 | 1014.1 |
| 20260902040040 | 81 | 77 | 0.0 | 1.0 | 0.00 | 0.00 | 0.00 | 78 | 1014.2 |
| 20260902035540 | 81 | 77 | 0.0 | 2.0 | 0.00 | 0.00 | 0.00 | 78 | 1014.2 |
| 20260902035039 | 81 | 77 | 0.0 | 2.0 | 0.00 | 0.00 | 0.00 | 77 | 1014.3 |
| 20260902034539 | 81 | 69 | 0.0 | 2.0 | 0.00 | 0.00 | 0.00 | 77 | 1014.3 |
| 20260902034039 | 81 | 69 | 0.0 | 1.0 | 0.00 | 0.00 | 0.00 | 77 | 1014.3 |
| 20260902033539 | 81 | 69 | 0.0 | 0.0 | 0.00 | 0.00 | 0.00 | 76 | 1014.3 |
| 20260902033039 | 81 | 69 | 0.0 | 0.0 | 0.00 | 0.00 | 0.00 | 76 | 1014.2 |
| 20260902032538 | 81 | 69 | 0.0 | 0.0 | 0.00 | 0.00 | 0.00 | 76 | 1014.1 |
| 20260902032038 | 81 | 69 | 0.0 | 0.0 | 0.00 | 0.00 | 0.00 | 76 | 1014.1 |
| 20260902031553 | 81 | 69 | 0.0 | 1.0 | 0.00 | 0.00 | 0.00 | 76 | 1014.1 |
| 20260902031039 | 81 | 69 | 0.0 | 1.0 | 0.00 | 0.00 | 0.00 | 76 | 1014.0 |
| 20260902030541 | 82 | 69 | 0.0 | 0.0 | 0.00 | 0.00 | 0.00 | 75 | 1013.9 |
| 20260902030038 | 82 | 69 | 0.0 | 1.0 | 0.00 | 0.00 | 0.00 | 75 | 1013.7 |
| 20260902025542 | 82 | 69 | 0.0 | 1.0 | 0.00 | 0.00 | 0.00 | 76 | 1013.7 |
| 20260902025038 | 82 | 69 | 0.0 | 1.0 | 0.00 | 0.00 | 0.00 | 75 | 1013.7 |
| 20260902024542 | 82 | 69 | 0.0 | 1.0 | 0.00 | 0.00 | 0.00 | 75 | 1013.6 |
| 20260902024037 | 82 | 69 | 0.0 | 1.0 | 0.00 | 0.00 | 0.00 | 75 | 1013.6 |
| 20260902023537 | 82 | 69 | 0.0 | 1.0 | 0.00 | 0.00 | 0.00 | 75 | 1013.5 |
| 20260902023038 | 82 | 69 | 0.0 | 1.0 | 0.00 | 0.00 | 0.00 | 75 | 1013.4 |
| 20260902022537 | 82 | 69 | 0.0 | 1.0 | 0.00 | 0.00 | 0.00 | 75 | 1013.5 |
| 20260902022036 | 82 | 69 | 0.0 | 1.0 | 0.00 | 0.00 | 0.00 | 74 | 1013.5 |
| 20260902021538 | 82 | 69 | 0.0 | 1.0 | 0.00 | 0.00 | 0.00 | 74 | 1013.3 |
| 20260902021036 | 82 | 69 | 0.0 | 1.0 | 0.00 | 0.00 | 0.00 | 74 | 1013.2 |
| 20260902020539 | 82 | 69 | 0.0 | 1.0 | 0.00 | 0.00 | 0.00 | 74 | 1013.2 |
| 20260902020039 | 82 | 69 | 0.0 | 1.0 | 0.00 | 0.00 | 0.00 | 74 | 1013.1 |
| 20260902015537 | 83 | 69 | 0.0 | 1.0 | 0.00 | 0.00 | 0.00 | 73 | 1013.0 |
| 20260902015036 | 83 | 69 | 0.0 | 2.0 | 0.00 | 0.00 | 0.00 | 73 | 1012.9 |
| 20260902014539 | 83 | 69 | 0.0 | 2.0 | 0.00 | 0.00 | 0.00 | 73 | 1012.8 |
| 20260902014039 | 83 | 69 | 0.0 | 2.0 | 0.00 | 0.00 | 0.00 | 72 | 1012.7 |
| 20260902013535 | 83 | 69 | 0.0 | 2.0 | 0.00 | 0.00 | 0.00 | 72 | 1012.6 |
| 20260902013035 | 83 | 69 | 0.0 | 2.0 | 0.00 | 0.00 | 0.00 | 72 | 1012.6 |
| 20260902012535 | 84 | 69 | 0.0 | 2.0 | 0.00 | 0.00 | 0.00 | 72 | 1012.5 |
| 20260902012034 | 84 | 69 | 0.0 | 2.0 | 0.00 | 0.00 | 0.00 | 71 | 1012.5 |
| 20260902011534 | 84 | 69 | 0.0 | 2.0 | 0.00 | 0.00 | 0.00 | 70 | 1012.5 |
| 20260902011037 | 84 | 69 | 0.0 | 1.0 | 0.00 | 0.00 | 0.00 | 69 | 1012.5 |
| 20260902010533 | 84 | 69 | 0.0 | 1.0 | 0.00 | 0.00 | 0.00 | 68 | 1012.6 |
| 20260902010037 | 84 | 69 | 0.0 | 1.0 | 0.00 | 0.00 | 0.00 | 68 | 1012.7 |
| 20260902005533 | 84 | 69 | 0.0 | 1.0 | 0.00 | 0.00 | 0.00 | 68 | 1012.7 |
| 20260902005033 | 84 | 69 | 0.0 | 2.0 | 0.00 | 0.00 | 0.00 | 68 | 1012.7 |
| 20260902004535 | 84 | 69 | 0.0 | 2.0 | 0.00 | 0.00 | 0.00 | 68 | 1012.9 |
| 20260902004032 | 84 | 69 | 0.0 | 2.0 | 0.00 | 0.00 | 0.00 | 68 | 1012.8 |
| 20260902003532 | 84 | 69 | 1.0 | 2.0 | 0.00 | 0.00 | 0.00 | 68 | 1012.8 |
| 20260902003033 | 84 | 69 | 0.0 | 3.0 | 0.00 | 0.00 | 0.00 | 68 | 1012.7 |
| 20260902002532 | 85 | 69 | 0.0 | 3.0 | 0.00 | 0.00 | 0.00 | 68 | 1012.8 |
| 20260902002032 | 85 | 69 | 1.0 | 3.0 | 0.00 | 0.00 | 0.00 | 68 | 1012.7 |
| 20260902001532 | 85 | 68 | 1.0 | 4.0 | 0.00 | 0.00 | 0.00 | 68 | 1012.7 |
| 20260902001034 | 85 | 84 | 2.0 | 6.0 | 0.00 | 0.00 | 0.00 | 68 | 1012.7 |
| 20260902000531 | 85 | 65 | 0.0 | 6.0 | 0.00 | 0.00 | 0.00 | 68 | 1012.7 |
| 20260902000031 | 85 | 76 | 2.0 | 6.0 | 0.00 | 0.00 | 0.00 | 69 | 1012.6 |
| 20260901235532 | 85 | 85 | 0.0 | 5.0 | 0.00 | 0.00 | 0.00 | 70 | 1012.6 |
| 20260901235034 | 85 | 71 | 1.0 | 5.0 | 0.00 | 0.00 | 0.00 | 70 | 1012.6 |
| 20260901234530 | 85 | 52 | 1.0 | 8.0 | 0.00 | 0.00 | 0.00 | 70 | 1012.7 |
| 20260901234030 | 85 | 16 | 3.0 | 9.0 | 0.00 | 0.00 | 0.00 | 70 | 1012.7 |
| 20260901233530 | 85 | 13 | 2.0 | 9.0 | 0.00 | 0.00 | 0.00 | 70 | 1012.7 |
| 20260901233030 | 85 | 57 | 2.0 | 9.0 | 0.00 | 0.00 | 0.00 | 69 | 1012.7 |
| 20260901232529 | 86 | 46 | 4.0 | 11.0 | 0.00 | 0.00 | 0.00 | 69 | 1012.7 |
| 20260901232029 | 86 | 63 | 3.0 | 11.0 | 0.00 | 0.00 | 0.00 | 68 | 1012.8 |
| 20260901231534 | 87 | 107 | 4.0 | 11.0 | 0.00 | 0.00 | 0.00 | 68 | 1012.8 |
| 20260901231028 | 88 | 95 | 5.0 | 11.0 | 0.00 | 0.00 | 0.00 | 66 | 1012.7 |
| 20260901230529 | 88 | 136 | 1.0 | 4.0 | 0.00 | 0.00 | 0.00 | 62 | 1012.8 |
| 20260901230029 | 88 | 91 | 1.0 | 4.0 | 0.00 | 0.00 | 0.00 | 61 | 1012.8 |
| 20260901225527 | 88 | 132 | 2.0 | 6.0 | 0.00 | 0.00 | 0.00 | 61 | 1012.7 |
| 20260901225027 | 88 | 117 | 2.0 | 6.0 | 0.00 | 0.00 | 0.00 | 60 | 1012.8 |
| 20260901224527 | 88 | 136 | 1.0 | 5.0 | 0.00 | 0.00 | 0.00 | 60 | 1012.8 |
| 20260901224030 | 88 | 132 | 2.0 | 5.0 | 0.00 | 0.00 | 0.00 | 60 | 1012.9 |
| 20260901223528 | 88 | 122 | 2.0 | 4.0 | 0.00 | 0.00 | 0.00 | 60 | 1012.8 |
| 20260901223027 | 88 | 146 | 2.0 | 4.0 | 0.00 | 0.00 | 0.00 | 59 | 1012.8 |
| 20260901222527 | 88 | 106 | 2.0 | 4.0 | 0.00 | 0.00 | 0.00 | 60 | 1012.8 |
| 20260901222031 | 89 | 124 | 2.0 | 4.0 | 0.00 | 0.00 | 0.00 | 60 | 1012.8 |
| 20260901221526 | 89 | 171 | 2.0 | 4.0 | 0.00 | 0.00 | 0.00 | 59 | 1012.8 |
| 20260901221026 | 89 | 120 | 2.0 | 4.0 | 0.00 | 0.00 | 0.00 | 58 | 1012.9 |
| 20260901220525 | 89 | 109 | 1.0 | 4.0 | 0.00 | 0.00 | 0.00 | 57 | 1012.8 |
| 20260901220025 | 90 | 125 | 1.0 | 4.0 | 0.00 | 0.00 | 0.00 | 54 | 1012.9 |
| 20260901215527 | 90 | 125 | 1.0 | 4.0 | 0.00 | 0.00 | 0.00 | 54 | 1013.1 |
| 20260901215022 | 90 | 65 | 1.0 | 3.0 | 0.00 | 0.00 | 0.00 | 55 | 1013.1 |
| 20260901214523 | 90 | 64 | 1.0 | 3.0 | 0.00 | 0.00 | 0.00 | 51 | 1013.2 |
| 20260901214023 | 90 | 63 | 1.0 | 3.0 | 0.00 | 0.00 | 0.00 | 50 | 1013.3 |
| 20260901213522 | 90 | 65 | 1.0 | 3.0 | 0.00 | 0.00 | 0.00 | 51 | 1013.4 |
| 20260901213027 | 90 | 11 | 0.0 | 3.0 | 0.00 | 0.00 | 0.00 | 53 | 1013.4 |
| 20260901212522 | 90 | 13 | 1.0 | 3.0 | 0.00 | 0.00 | 0.00 | 54 | 1013.3 |
| 20260901212023 | 90 | 78 | 1.0 | 5.0 | 0.00 | 0.00 | 0.00 | 57 | 1013.3 |
| 20260901211522 | 90 | 11 | 1.0 | 5.0 | 0.00 | 0.00 | 0.00 | 57 | 1013.3 |
| 20260901211025 | 90 | 109 | 0.0 | 3.0 | 0.00 | 0.00 | 0.00 | 56 | 1013.2 |
| 20260901210521 | 89 | 110 | 1.0 | 3.0 | 0.00 | 0.00 | 0.00 | 58 | 1013.1 |
| 20260901210021 | 89 | 121 | 0.0 | 4.0 | 0.00 | 0.00 | 0.00 | 58 | 1013.1 |
| 20260901205522 | 89 | 121 | 3.0 | 4.0 | 0.00 | 0.00 | 0.00 | 58 | 1013.1 |
| 20260901205021 | 89 | 118 | 1.0 | 4.0 | 0.00 | 0.00 | 0.00 | 57 | 1013.1 |
| 20260901204522 | 90 | 117 | 1.0 | 5.0 | 0.00 | 0.00 | 0.00 | 57 | 1013.1 |
| 20260901204019 | 91 | 25 | 1.0 | 6.0 | 0.00 | 0.00 | 0.00 | 57 | 1013.3 |
| 20260901203519 | 91 | 13 | 2.0 | 6.0 | 0.00 | 0.00 | 0.00 | 55 | 1013.4 |
| 20260901203018 | 91 | 350 | 2.0 | 8.0 | 0.00 | 0.00 | 0.00 | 54 | 1013.5 |
| 20260901202516 | 91 | 355 | 3.0 | 10.0 | 0.00 | 0.00 | 0.00 | 54 | 1013.6 |
| 20260901202019 | 91 | 17 | 4.0 | 11.0 | 0.00 | 0.00 | 0.00 | 52 | 1013.7 |
| 20260901201515 | 91 | 348 | 3.0 | 10.0 | 0.00 | 0.00 | 0.00 | 51 | 1013.9 |
| 20260901201016 | 92 | 32 | 4.0 | 9.0 | 0.00 | 0.00 | 0.00 | 51 | 1014.0 |
| 20260901200514 | 92 | 67 | 3.0 | 11.0 | 0.00 | 0.00 | 0.00 | 51 | 1014.1 |
| 20260901200016 | 93 | 351 | 4.0 | 11.0 | 0.00 | 0.00 | 0.00 | 52 | 1014.0 |
| 20260901195513 | 93 | 259 | 4.0 | 9.0 | 0.00 | 0.00 | 0.00 | 53 | 1014.2 |
| 20260901195012 | 93 | 110 | 4.0 | 9.0 | 0.00 | 0.00 | 0.00 | 53 | 1014.2 |
| 20260901194512 | 93 | 108 | 2.0 | 8.0 | 0.00 | 0.00 | 0.00 | 54 | 1014.2 |
| 20260901194016 | 93 | 71 | 3.0 | 8.0 | 0.00 | 0.00 | 0.00 | 54 | 1014.3 |
| 20260901193614 | 93 | 109 | 1.0 | 7.0 | 0.00 | 0.00 | 0.00 | 54 | 1014.2 |
| 20260901193011 | 93 | 114 | 2.0 | 7.0 | 0.00 | 0.00 | 0.00 | 53 | 1014.2 |
| 20260901192513 | 94 | 322 | 2.0 | 5.0 | 0.00 | 0.00 | 0.00 | 53 | 1014.2 |
| 20260901192009 | 93 | 328 | 1.0 | 5.0 | 0.00 | 0.00 | 0.00 | 56 | 1014.2 |
| 20260901191513 | 92 | 328 | 2.0 | 5.0 | 0.00 | 0.00 | 0.00 | 56 | 1014.2 |
| 20260901191009 | 92 | 360 | 2.0 | 8.0 | 0.00 | 0.00 | 0.00 | 56 | 1014.3 |
| 20260901190507 | 91 | 78 | 3.0 | 8.0 | 0.00 | 0.00 | 0.00 | 56 | 1014.3 |
| 20260901190006 | 91 | 86 | 3.0 | 10.0 | 0.00 | 0.00 | 0.00 | 56 | 1014.4 |
| 20260901185505 | 91 | 23 | 3.0 | 10.0 | 0.00 | 0.00 | 0.00 | 57 | 1014.5 |
| 20260901185004 | 91 | 108 | 2.0 | 7.0 | 0.00 | 0.00 | 0.00 | 56 | 1014.5 |
| 20260901184504 | 92 | 58 | 1.0 | 6.0 | 0.00 | 0.00 | 0.00 | 56 | 1014.6 |
| 20260901184003 | 91 | 227 | 2.0 | 6.0 | 0.00 | 0.00 | 0.00 | 57 | 1014.6 |
| 20260901183603 | 91 | 86 | 3.0 | 7.0 | 0.00 | 0.00 | 0.00 | 56 | 1014.7 |
| 20260901183008 | 91 | 78 | 3.0 | 7.0 | 0.00 | 0.00 | 0.00 | 54 | 1014.7 |
| 20260901182502 | 92 | 111 | 2.0 | 9.0 | 0.00 | 0.00 | 0.00 | 57 | 1014.8 |
| 20260901182001 | 92 | 37 | 1.0 | 9.0 | 0.00 | 0.00 | 0.00 | 56 | 1014.8 |
| 20260901181600 | 92 | 355 | 3.0 | 9.0 | 0.00 | 0.00 | 0.00 | 57 | 1014.9 |
| 20260901181059 | 91 | 5 | 2.0 | 5.0 | 0.00 | 0.00 | 0.00 | 59 | 1014.9 |
| 20260901180558 | 91 | 77 | 1.0 | 5.0 | 0.00 | 0.00 | 0.00 | 59 | 1014.9 |
| 20260901180057 | 91 | 313 | 2.0 | 6.0 | 0.00 | 0.00 | 0.00 | 60 | 1015.0 |
| 20260901175557 | 90 | 22 | 3.0 | 9.0 | 0.00 | 0.00 | 0.00 | 60 | 1015.0 |
| 20260901175056 | 90 | 5 | 4.0 | 9.0 | 0.00 | 0.00 | 0.00 | 61 | 1015.1 |
| 20260901174554 | 89 | 98 | 3.0 | 8.0 | 0.00 | 0.00 | 0.00 | 61 | 1015.3 |
| 20260901174054 | 89 | 76 | 3.0 | 6.0 | 0.00 | 0.00 | 0.00 | 62 | 1015.4 |
| 20260901173556 | 89 | 17 | 2.0 | 6.0 | 0.00 | 0.00 | 0.00 | 63 | 1015.6 |
| 20260901173119 | 89 | 76 | 2.0 | 6.0 | 0.00 | 0.00 | 0.00 | 63 | 1015.7 |
| 20260901172550 | 88 | 11 | 2.0 | 8.0 | 0.00 | 0.00 | 0.00 | 63 | 1015.8 |
| 20260901172050 | 88 | 54 | 3.0 | 11.0 | 0.00 | 0.00 | 0.00 | 64 | 1015.9 |
| 20260901171555 | 88 | 12 | 3.0 | 8.0 | 0.00 | 0.00 | 0.00 | 64 | 1016.0 |
| 20260901171049 | 88 | 329 | 2.0 | 6.0 | 0.00 | 0.00 | 0.00 | 66 | 1016.1 |
| 20260901170550 | 88 | 70 | 2.0 | 9.0 | 0.00 | 0.00 | 0.00 | 65 | 1016.1 |
| 20260901170055 | 88 | 12 | 3.0 | 9.0 | 0.00 | 0.00 | 0.00 | 65 | 1016.2 |
| 20260901165548 | 88 | 33 | 3.0 | 8.0 | 0.00 | 0.00 | 0.00 | 66 | 1016.3 |
| 20260901165048 | 88 | 73 | 2.0 | 6.0 | 0.00 | 0.00 | 0.00 | 66 | 1016.2 |
| 20260901164549 | 88 | 5 | 1.0 | 8.0 | 0.00 | 0.00 | 0.00 | 67 | 1016.2 |
| 20260901164046 | 88 | 82 | 1.0 | 8.0 | 0.00 | 0.00 | 0.00 | 66 | 1016.3 |
| 20260901163546 | 88 | 360 | 3.0 | 8.0 | 0.00 | 0.00 | 0.00 | 67 | 1016.1 |
| 20260901163105 | 87 | 17 | 3.0 | 8.0 | 0.00 | 0.00 | 0.00 | 67 | 1016.2 |
| 20260901162545 | 87 | 338 | 1.0 | 9.0 | 0.00 | 0.00 | 0.00 | 69 | 1016.2 |
| 20260901162045 | 87 | 25 | 2.0 | 9.0 | 0.00 | 0.00 | 0.00 | 69 | 1016.2 |
| 20260901161551 | 87 | 14 | 0.0 | 8.0 | 0.00 | 0.00 | 0.00 | 69 | 1016.2 |
| 20260901161045 | 87 | 302 | 3.0 | 8.0 | 0.00 | 0.00 | 0.00 | 69 | 1016.2 |
| 20260901160543 | 87 | 360 | 3.0 | 8.0 | 0.00 | 0.00 | 0.00 | 69 | 1016.2 |
| 20260901160048 | 87 | 313 | 4.0 | 8.0 | 0.00 | 0.00 | 0.00 | 70 | 1016.2 |
| 20260901155544 | 87 | 5 | 2.0 | 9.0 | 0.00 | 0.00 | 0.00 | 70 | 1016.1 |
| 20260901155044 | 87 | 360 | 4.0 | 10.0 | 0.00 | 0.00 | 0.00 | 70 | 1016.0 |
| 20260901154547 | 87 | 50 | 5.0 | 10.0 | 0.00 | 0.00 | 0.00 | 70 | 1016.0 |
| 20260901154046 | 87 | 15 | 4.0 | 8.0 | 0.00 | 0.00 | 0.00 | 71 | 1016.0 |
| 20260901153543 | 87 | 304 | 3.0 | 9.0 | 0.00 | 0.00 | 0.00 | 71 | 1016.0 |
| 20260901153041 | 87 | 350 | 3.0 | 9.0 | 0.00 | 0.00 | 0.00 | 72 | 1016.0 |
| 20260901152540 | 87 | 18 | 2.0 | 8.0 | 0.00 | 0.00 | 0.00 | 71 | 1016.0 |
| 20260901152040 | 87 | 5 | 3.0 | 9.0 | 0.00 | 0.00 | 0.00 | 72 | 1016.0 |
| 20260901151549 | 87 | 351 | 4.0 | 9.0 | 0.00 | 0.00 | 0.00 | 72 | 1016.0 |
| 20260901151036 | 86 | 315 | 4.0 | 9.0 | 0.00 | 0.00 | 0.00 | 74 | 1016.1 |
| 20260901150533 | 85 | 319 | 3.0 | 8.0 | 0.00 | 0.00 | 0.00 | 75 | 1016.0 |
| 20260901150033 | 85 | 5 | 2.0 | 8.0 | 0.00 | 0.00 | 0.00 | 76 | 1016.0 |
| 20260901145533 | 85 | 355 | 3.0 | 9.0 | 0.00 | 0.00 | 0.00 | 77 | 1016.1 |
| 20260901145030 | 84 | 335 | 3.0 | 9.0 | 0.00 | 0.00 | 0.00 | 77 | 1016.1 |
| 20260901144532 | 84 | 315 | 2.0 | 6.0 | 0.00 | 0.00 | 0.00 | 79 | 1016.2 |
| 20260901144028 | 83 | 325 | 2.0 | 8.0 | 0.00 | 0.00 | 0.00 | 79 | 1016.3 |
| 20260901143527 | 83 | 51 | 3.0 | 8.0 | 0.00 | 0.00 | 0.00 | 79 | 1016.3 |
| 20260901143027 | 83 | 17 | 3.0 | 8.0 | 0.00 | 0.00 | 0.00 | 80 | 1016.2 |
| 20260901142525 | 82 | 5 | 3.0 | 8.0 | 0.00 | 0.00 | 0.00 | 81 | 1016.3 |
| 20260901142028 | 82 | 19 | 3.0 | 8.0 | 0.00 | 0.00 | 0.00 | 82 | 1016.2 |
| 20260901141533 | 81 | 355 | 3.0 | 6.0 | 0.00 | 0.00 | 0.00 | 82 | 1016.2 |
| 20260901141024 | 81 | 355 | 2.0 | 4.0 | 0.00 | 0.00 | 0.00 | 83 | 1016.2 |
| 20260901140524 | 81 | 345 | 1.0 | 4.0 | 0.00 | 0.00 | 0.00 | 83 | 1016.3 |
| 20260901140024 | 81 | 15 | 1.0 | 3.0 | 0.00 | 0.00 | 0.00 | 84 | 1016.4 |
| 20260901135527 | 81 | 360 | 0.0 | 2.0 | 0.00 | 0.00 | 0.00 | 85 | 1016.3 |
| 20260901135024 | 80 | 360 | 0.0 | 2.0 | 0.00 | 0.00 | 0.00 | 85 | 1016.3 |
| 20260901134524 | 80 | 360 | 0.0 | 2.0 | 0.00 | 0.00 | 0.00 | 85 | 1016.4 |
| 20260901134024 | 80 | 360 | 0.0 | 2.0 | 0.00 | 0.00 | 0.00 | 86 | 1016.3 |
| 20260901133524 | 80 | 360 | 0.0 | 2.0 | 0.00 | 0.00 | 0.00 | 86 | 1016.3 |
| 20260901133022 | 80 | 360 | 0.0 | 2.0 | 0.00 | 0.00 | 0.00 | 86 | 1016.3 |
| 20260901132522 | 80 | 360 | 0.0 | 3.0 | 0.00 | 0.00 | 0.00 | 86 | 1016.2 |
| 20260901132021 | 80 | 360 | 0.0 | 5.0 | 0.00 | 0.00 | 0.00 | 86 | 1016.1 |
| 20260901131523 | 79 | 360 | 1.0 | 5.0 | 0.00 | 0.00 | 0.00 | 87 | 1016.0 |
| 20260901131022 | 79 | 5 | 2.0 | 4.0 | 0.00 | 0.00 | 0.00 | 87 | 1015.9 |
| 20260901130521 | 79 | 334 | 0.0 | 2.0 | 0.00 | 0.00 | 0.00 | 88 | 1015.9 |
| 20260901130017 | 79 | 333 | 1.0 | 3.0 | 0.00 | 0.00 | 0.00 | 88 | 1015.8 |
| 20260901125516 | 79 | 330 | 0.0 | 3.0 | 0.00 | 0.00 | 0.00 | 88 | 1015.7 |
| 20260901125016 | 79 | 328 | 0.0 | 3.0 | 0.00 | 0.00 | 0.00 | 88 | 1015.7 |
| 20260901124516 | 79 | 328 | 0.0 | 3.0 | 0.00 | 0.00 | 0.00 | 88 | 1015.6 |
| 20260901124016 | 79 | 336 | 1.0 | 4.0 | 0.00 | 0.00 | 0.00 | 88 | 1015.5 |
| 20260901123516 | 78 | 336 | 1.0 | 4.0 | 0.00 | 0.00 | 0.00 | 88 | 1015.4 |
| 20260901123029 | 78 | 355 | 1.0 | 4.0 | 0.00 | 0.00 | 0.00 | 88 | 1015.4 |
| 20260901122517 | 78 | 30 | 1.0 | 3.0 | 0.00 | 0.00 | 0.00 | 88 | 1015.3 |
| 20260901122016 | 78 | 30 | 1.0 | 3.0 | 0.00 | 0.00 | 0.00 | 88 | 1015.3 |
| 20260901121518 | 78 | 30 | 1.0 | 3.0 | 0.00 | 0.00 | 0.00 | 88 | 1015.3 |
| 20260901121015 | 78 | 30 | 0.0 | 1.0 | 0.00 | 0.00 | 0.00 | 88 | 1015.3 |
| 20260901120513 | 78 | 30 | 0.0 | 1.0 | 0.00 | 0.00 | 0.00 | 88 | 1015.1 |
| 20260901120014 | 78 | 30 | 0.0 | 2.0 | 0.00 | 0.00 | 0.00 | 88 | 1015.0 |
| 20260901115514 | 78 | 30 | 0.0 | 2.0 | 0.00 | 0.00 | 0.00 | 88 | 1014.9 |
| 20260901115014 | 78 | 30 | 0.0 | 2.0 | 0.00 | 0.00 | 0.00 | 88 | 1014.9 |
| 20260901114513 | 78 | 30 | 0.0 | 3.0 | 0.00 | 0.00 | 0.00 | 88 | 1015.0 |
| 20260901114013 | 78 | 30 | 1.0 | 3.0 | 0.00 | 0.00 | 0.00 | 88 | 1014.9 |
| 20260901113513 | 78 | 157 | 1.0 | 3.0 | 0.00 | 0.00 | 0.00 | 88 | 1014.9 |
| 20260901113013 | 78 | 157 | 0.0 | 3.0 | 0.00 | 0.00 | 0.00 | 88 | 1014.9 |
| 20260901112512 | 78 | 157 | 1.0 | 2.0 | 0.00 | 0.00 | 0.00 | 88 | 1015.0 |
| 20260901112012 | 78 | 157 | 0.0 | 1.0 | 0.00 | 0.00 | 0.00 | 88 | 1015.0 |
| 20260901111512 | 78 | 157 | 0.0 | 2.0 | 0.00 | 0.00 | 0.00 | 88 | 1015.1 |
| 20260901111012 | 78 | 157 | 0.0 | 2.0 | 0.00 | 0.00 | 0.00 | 88 | 1015.1 |
| 20260901110511 | 78 | 157 | 0.0 | 1.0 | 0.00 | 0.00 | 0.00 | 88 | 1015.0 |
| 20260901110011 | 78 | 157 | 0.0 | 2.0 | 0.00 | 0.00 | 0.00 | 88 | 1014.9 |
| 20260901105513 | 78 | 157 | 0.0 | 2.0 | 0.00 | 0.00 | 0.00 | 88 | 1014.9 |
| 20260901105010 | 78 | 157 | 0.0 | 2.0 | 0.00 | 0.00 | 0.00 | 88 | 1014.9 |
| 20260901104510 | 78 | 157 | 0.0 | 2.0 | 0.00 | 0.00 | 0.00 | 88 | 1014.8 |
| 20260901104010 | 78 | 157 | 0.0 | 1.0 | 0.00 | 0.00 | 0.00 | 88 | 1014.8 |
| 20260901103510 | 78 | 157 | 0.0 | 1.0 | 0.00 | 0.00 | 0.00 | 88 | 1014.8 |
| 20260901103010 | 78 | 157 | 0.0 | 1.0 | 0.00 | 0.00 | 0.00 | 87 | 1014.8 |
| 20260901102511 | 78 | 157 | 0.0 | 1.0 | 0.00 | 0.00 | 0.00 | 87 | 1014.7 |
| 20260901102010 | 79 | 157 | 0.0 | 1.0 | 0.00 | 0.00 | 0.00 | 87 | 1014.6 |
| 20260901101513 | 79 | 157 | 0.0 | 1.0 | 0.00 | 0.00 | 0.00 | 87 | 1014.7 |
| 20260901101009 | 79 | 157 | 0.0 | 1.0 | 0.00 | 0.00 | 0.00 | 88 | 1014.8 |
| 20260901100508 | 79 | 157 | 0.0 | 0.0 | 0.00 | 0.00 | 0.00 | 87 | 1014.8 |
| 20260901100008 | 79 | 157 | 0.0 | 1.0 | 0.00 | 0.00 | 0.00 | 88 | 1014.8 |
| 20260901095508 | 79 | 157 | 0.0 | 1.0 | 0.00 | 0.00 | 0.00 | 88 | 1014.8 |
| 20260901095007 | 79 | 157 | 0.0 | 1.0 | 0.00 | 0.00 | 0.00 | 87 | 1014.9 |
| 20260901094507 | 79 | 157 | 0.0 | 1.0 | 0.00 | 0.00 | 0.00 | 87 | 1014.9 |
| 20260901094007 | 79 | 157 | 0.0 | 1.0 | 0.00 | 0.00 | 0.00 | 87 | 1014.9 |
| 20260901093509 | 79 | 157 | 0.0 | 0.0 | 0.00 | 0.00 | 0.00 | 87 | 1015.0 |
| 20260901093006 | 79 | 157 | 0.0 | 0.0 | 0.00 | 0.00 | 0.00 | 87 | 1014.9 |
| 20260901092506 | 79 | 157 | 0.0 | 0.0 | 0.00 | 0.00 | 0.00 | 86 | 1014.9 |
| 20260901092006 | 79 | 157 | 0.0 | 0.0 | 0.00 | 0.00 | 0.00 | 86 | 1014.9 |
| 20260901091505 | 79 | 157 | 0.0 | 0.0 | 0.00 | 0.00 | 0.00 | 86 | 1014.9 |
| 20260901091007 | 79 | 157 | 0.0 | 0.0 | 0.00 | 0.00 | 0.00 | 86 | 1014.9 |
| 20260901090504 | 79 | 157 | 0.0 | 0.0 | 0.00 | 0.00 | 0.00 | 85 | 1014.9 |
| 20260901090006 | 79 | 157 | 0.0 | 0.0 | 0.00 | 0.00 | 0.00 | 85 | 1014.9 |
| 20260901085503 | 79 | 157 | 0.0 | 1.0 | 0.00 | 0.00 | 0.00 | 85 | 1014.9 |
| 20260901085006 | 79 | 157 | 0.0 | 1.0 | 0.00 | 0.00 | 0.00 | 85 | 1014.9 |
| 20260901084502 | 79 | 157 | 0.0 | 1.0 | 0.00 | 0.00 | 0.00 | 85 | 1014.9 |
| 20260901084002 | 79 | 157 | 0.0 | 1.0 | 0.00 | 0.00 | 0.00 | 85 | 1015.0 |
| 20260901083502 | 79 | 157 | 0.0 | 0.0 | 0.00 | 0.00 | 0.00 | 85 | 1015.0 |
| 20260901083002 | 79 | 157 | 0.0 | 1.0 | 0.00 | 0.00 | 0.00 | 85 | 1015.1 |
| 20260901082501 | 79 | 157 | 0.0 | 1.0 | 0.00 | 0.00 | 0.00 | 85 | 1015.0 |
| 20260901082000 | 79 | 157 | 0.0 | 1.0 | 0.00 | 0.00 | 0.00 | 85 | 1015.1 |
| 20260901081600 | 79 | 157 | 0.0 | 1.0 | 0.00 | 0.00 | 0.00 | 85 | 1015.1 |
| 20260901081059 | 79 | 157 | 0.0 | 0.0 | 0.00 | 0.00 | 0.00 | 84 | 1015.1 |
| 20260901080559 | 79 | 157 | 0.0 | 1.0 | 0.00 | 0.00 | 0.00 | 84 | 1015.2 |
| 20260901080112 | 80 | 157 | 0.0 | 1.0 | 0.00 | 0.00 | 0.00 | 85 | 1015.3 |
| 20260901075558 | 80 | 157 | 0.0 | 1.0 | 0.00 | 0.00 | 0.00 | 85 | 1015.3 |
| 20260901075059 | 80 | 157 | 0.0 | 0.0 | 0.00 | 0.00 | 0.00 | 84 | 1015.3 |
| 20260901074619 | 80 | 157 | 0.0 | 0.0 | 0.00 | 0.00 | 0.00 | 84 | 1015.4 |
| 20260901074056 | 80 | 157 | 0.0 | 0.0 | 0.00 | 0.00 | 0.00 | 83 | 1015.3 |
| 20260901073557 | 80 | 157 | 0.0 | 0.0 | 0.00 | 0.00 | 0.00 | 83 | 1015.2 |
| 20260901073059 | 80 | 157 | 0.0 | 0.0 | 0.00 | 0.00 | 0.00 | 83 | 1015.3 |
| 20260901072558 | 80 | 157 | 0.0 | 0.0 | 0.00 | 0.00 | 0.00 | 83 | 1015.4 |
| 20260901072055 | 80 | 157 | 0.0 | 1.0 | 0.00 | 0.00 | 0.00 | 83 | 1015.4 |
| 20260901071556 | 80 | 157 | 0.0 | 1.0 | 0.00 | 0.00 | 0.00 | 83 | 1015.3 |
| 20260901071055 | 80 | 157 | 0.0 | 0.0 | 0.00 | 0.00 | 0.00 | 83 | 1015.3 |
| 20260901070554 | 80 | 157 | 0.0 | 2.0 | 0.00 | 0.00 | 0.00 | 82 | 1015.3 |
| 20260901070054 | 80 | 157 | 0.0 | 2.0 | 0.00 | 0.00 | 0.00 | 83 | 1015.3 |
| 20260901065554 | 80 | 157 | 0.0 | 2.0 | 0.00 | 0.00 | 0.00 | 82 | 1015.3 |
| 20260901065053 | 80 | 157 | 0.0 | 1.0 | 0.00 | 0.00 | 0.00 | 82 | 1015.3 |
| 20260901064553 | 80 | 157 | 0.0 | 1.0 | 0.00 | 0.00 | 0.00 | 82 | 1015.4 |
| 20260901064057 | 80 | 157 | 0.0 | 0.0 | 0.00 | 0.00 | 0.00 | 82 | 1015.4 |
| 20260901063551 | 81 | 157 | 0.0 | 1.0 | 0.00 | 0.00 | 0.00 | 81 | 1015.4 |
| 20260901063101 | 81 | 157 | 0.0 | 1.0 | 0.00 | 0.00 | 0.00 | 81 | 1015.4 |
| 20260901062551 | 81 | 157 | 0.0 | 0.0 | 0.00 | 0.00 | 0.00 | 81 | 1015.5 |
| 20260901062051 | 81 | 157 | 0.0 | 0.0 | 0.00 | 0.00 | 0.00 | 81 | 1015.5 |
| 20260901061551 | 81 | 157 | 0.0 | 1.0 | 0.00 | 0.00 | 0.00 | 81 | 1015.5 |
| 20260901061052 | 81 | 157 | 0.0 | 2.0 | 0.00 | 0.00 | 0.00 | 81 | 1015.5 |
| 20260901060551 | 81 | 157 | 0.0 | 2.0 | 0.00 | 0.00 | 0.00 | 81 | 1015.6 |
| 20260901060049 | 81 | 157 | 0.0 | 1.0 | 0.00 | 0.00 | 0.00 | 80 | 1015.6 |
| 20260901055549 | 81 | 157 | 0.0 | 0.0 | 0.00 | 0.00 | 0.00 | 80 | 1015.6 |
| 20260901055048 | 81 | 157 | 0.0 | 1.0 | 0.00 | 0.00 | 0.00 | 80 | 1015.5 |
| 20260901054548 | 81 | 157 | 0.0 | 1.0 | 0.00 | 0.00 | 0.00 | 81 | 1015.5 |
| 20260901054051 | 81 | 157 | 0.0 | 1.0 | 0.00 | 0.00 | 0.00 | 80 | 1015.5 |
| 20260901053546 | 82 | 157 | 0.0 | 0.0 | 0.00 | 0.00 | 0.00 | 80 | 1015.4 |
| 20260901053057 | 82 | 157 | 0.0 | 0.0 | 0.00 | 0.00 | 0.00 | 79 | 1015.3 |
| 20260901052545 | 82 | 157 | 0.0 | 0.0 | 0.00 | 0.00 | 0.00 | 80 | 1015.3 |
| 20260901052045 | 82 | 157 | 0.0 | 0.0 | 0.00 | 0.00 | 0.00 | 80 | 1015.3 |
| 20260901051545 | 82 | 157 | 0.0 | 1.0 | 0.00 | 0.00 | 0.00 | 80 | 1015.3 |
| 20260901051044 | 82 | 157 | 0.0 | 1.0 | 0.00 | 0.00 | 0.00 | 80 | 1015.3 |
| 20260901050547 | 82 | 157 | 0.0 | 0.0 | 0.00 | 0.00 | 0.00 | 80 | 1015.3 |
| 20260901050041 | 82 | 157 | 0.0 | 1.0 | 0.00 | 0.00 | 0.00 | 80 | 1015.2 |
| 20260901045540 | 82 | 157 | 0.0 | 1.0 | 0.00 | 0.00 | 0.00 | 80 | 1015.2 |
| 20260901045043 | 82 | 157 | 0.0 | 1.0 | 0.00 | 0.00 | 0.00 | 80 | 1015.1 |
| 20260901044549 | 82 | 157 | 0.0 | 1.0 | 0.00 | 0.00 | 0.00 | 80 | 1015.0 |
| 20260901044040 | 82 | 157 | 0.0 | 1.0 | 0.00 | 0.00 | 0.00 | 80 | 1014.9 |
| 20260901043540 | 82 | 157 | 0.0 | 2.0 | 0.00 | 0.00 | 0.00 | 79 | 1015.0 |
| 20260901043040 | 82 | 157 | 0.0 | 2.0 | 0.00 | 0.00 | 0.00 | 79 | 1014.9 |
| 20260901042539 | 82 | 157 | 0.0 | 2.0 | 0.00 | 0.00 | 0.00 | 79 | 1014.9 |